Preview of NWS' New Version of Forecast
This preview is not operational and should not be used for support decisions.
Latest weather observations around

Marietta, Cobb County-McCollum Field Airport (KRYY)

Using English Units (Switch to International System of Units)
Date/ Time (EST) Wind (mph) Vis. (mi) Weather Sky Cond. Temp (°F) Rel. Humidity Wind Chill (°F) Heat Index (°F) Pressure Precip. (in)
Air Dwpt 6 hour Altimeter (inHg) Sea level (inHg) 1 hr 3 hr 6 hr
Max Min
Jan 18 09:18 Calm 1.5 Fog/Mist BKN001 OVC046 46 46     100%     30.13        
Jan 18 09:12 Calm 1 Fog/Mist BKN001 OVC046 46 46     100%     30.13        
Jan 18 09:01 Calm 0.5 Fog BKN001 OVC046 46 46     100%     30.13        
Jan 18 08:51 Calm 1 Fog/Mist OVC001 46 46     100%     30.14        
Jan 18 08:48 Calm 0.75 Fog/Mist OVC003 47 47     100%              
Jan 18 08:28 Calm 0.5 Fog OVC003 46 46     100%     30.13        
Jan 18 07:48 Calm 0.25 Fog OVC003 46 46     100%              
Jan 18 07:30 Calm 0.25 Fog OVC003 46 46     100%     30.12        
Jan 18 07:16 Calm 0.5 Fog OVC003 46 46     100%     30.12        
Jan 18 07:07 Calm 0.25 Fog OVC003 46 45     93%     30.12        
Jan 18 05:48 Calm 0.5 Fog OVC003 46 46     100%         0    
Jan 18 04:48 Calm 0.5 Light Rain and Fog OVC003 45 45     100%         0    
Jan 18 04:35 Calm 0.25 Light Rain and Fog OVC003 45 45     100%     30.11   0    
Jan 18 04:23 Calm 0.5 Light Rain and Fog OVC003 45 45     100%     30.11   0    
Jan 18 04:02 Calm 0.25 Light Rain and Fog OVC003 45 45     100%     30.11   0    
Jan 18 03:48 Calm 0.5 Fog OVC003 45 45     100%           0  
Jan 18 03:35 Calm 0.5 Fog OVC003 45 45     100%     30.12        
Jan 18 03:11 Calm 0.25 Fog OVC003 45 45     100%     30.12        
Jan 18 03:02 Calm 0.5 Fog OVC003 45 45     100%     30.12        
Jan 18 02:48 Calm 0.75 Fog/Mist OVC003 45 45     100%              
Jan 18 02:27 Calm 0.75 Fog/Mist OVC003 45 45     100%     30.13        
Jan 18 01:48 Calm 1 Fog/Mist OVC003 45 45     100%         0    
Jan 18 01:26 Calm 1 Fog/Mist OVC003 45 45     100%     30.14   0    
Jan 18 01:04 Calm 0.75 Light Rain and Fog/Mist OVC003 45 45     100%     30.13   0    
Jan 18 00:55 Calm 0.5 Light Rain and Fog OVC003 45 45     100%     30.13   0    
Jan 18 00:48 Calm 0.25 Light Rain and Fog OVC003 45 44     97%         0   0
Jan 18 00:39 Calm 0.75 Light Rain and Fog/Mist OVC003 45 45     100%     30.14   0    
Jan 18 00:21 Calm 1 Fog/Mist OVC003 45 45     100%     30.14        
Jan 17 23:59 Calm 0.75 Fog/Mist OVC003 45 45     100%     30.15        
Jan 17 23:48 Calm 0.5 Fog OVC003 45 44     97%         0    
Jan 17 23:42 Calm 0.5 Fog OVC003 45 45     100%     30.15   0    
Jan 17 23:36 Calm 0.75 Light Rain and Fog/Mist OVC003 45 45     100%     30.15   0    
Jan 17 23:18 Calm 1.75 Fog/Mist OVC003 45 45     100%     30.16        
Jan 17 22:54 Calm 2.5 Fog/Mist OVC003 45 45     100%     30.16        
Jan 17 22:48 Calm 3 Fog/Mist OVC003 45 44     97%         0    
Jan 17 22:36 SW 3 2.5 Fog/Mist OVC003 45 45     100% 43   30.15   0    
Jan 17 21:48 Calm 6 Rain and Fog/Mist OVC005 45 44     97%         0 0  
Jan 17 21:05 S 5 7 Rain OVC005 45 43     93% 42   30.15   0    
Jan 17 20:48 S 6 8 Rain OVC007 45 43     93% 42       0    
Jan 17 20:02 S 3 8 Rain BKN009 OVC018 45 43     93% 43   30.15   0    
Jan 17 19:48 S 3 8 Rain FEW009 OVC018 44 43     96% 43       0    
Jan 17 18:39 SSE 3 7 Rain SCT008 OVC026 45 43     93% 43   30.14   0    
Jan 17 17:53 Calm 7 Rain OVC008 45 43     93%     30.16   0    
Jan 17 17:48 SSE 5 2 Rain and Fog/Mist BKN005 OVC025 44 42     93% 41       0    
Jan 17 17:02 ESE 3 2 Rain and Fog/Mist BKN005 OVC025 45 43     93% 43   30.16   0    
Jan 17 16:54 Calm 5 Rain and Fog/Mist BKN005 BKN014 OVC044 45 43     93%     30.17   0    
Jan 17 16:48 SE 5 3 Rain and Fog/Mist BKN003 BKN008 OVC025 44 43     96% 41       0    
Jan 17 16:35 ESE 7 2 Rain and Fog/Mist BKN003 OVC009 43 43     100% 39   30.17   0    
Jan 17 15:53 ENE 3 1.5 Rain and Fog/Mist OVC003 43 43     100% 41   30.16   0    
Jan 17 15:30 E 3 1 Rain and Fog/Mist OVC005 43 43     100% 41   30.16   0    
Jan 17 15:22 Calm 2 Rain and Fog/Mist OVC009 43 43     100%     30.17   0    
Jan 17 15:16 Calm 3 Rain and Fog/Mist OVC009 43 43     100%     30.17   0    
Jan 17 14:59 ESE 6 3 Rain and Fog/Mist SCT005 BKN010 OVC026 45 43     93% 41   30.17   0    
Jan 17 14:53 Calm 4 Rain and Fog/Mist SCT005 BKN015 OVC026 45 43     93%     30.17   0    
Jan 17 14:48 SW 5 1 Rain and Fog/Mist OVC005 44 42     93% 41       0    
Jan 17 14:13 SW 3 2 Rain and Fog/Mist OVC009 45 39     81% 43   30.19   0    
Jan 17 14:06 Calm 3 Rain FEW009 OVC026 45 39     81%     30.19   0    
Jan 17 13:48 WSW 3 3 Rain and Fog/Mist SCT017 OVC028 44 41     89% 43            
Jan 17 13:34 Calm 9 Rain FEW017 OVC029 45 41     87%     30.2        
Jan 17 11:48 SSW 7 7 Light Rain BKN046 OVC055 46 37     71% 42            
Jan 17 10:48 Calm 10 Heavy Rain BKN048 43 36     76%         0    
Jan 17 09:48 N 3 7 Mostly Cloudy BKN050 40 39     97% 38            
Jan 17 08:48 N 3 6 Fog/Mist BKN120 33 31     92% 30            
Jan 17 07:48 Calm 6 Fog/Mist CLR 31 29     92%              
Jan 17 06:48 Calm 5 Fog/Mist CLR 29 28     96%              
Jan 17 05:48 Calm 6 Fog/Mist CLR 30 28     92%              
Jan 17 04:48 Calm 7 Clear CLR 30 29     96%              
Jan 17 03:48 Calm 8 Clear CLR 31 31     100%              
Jan 17 02:48 Calm 8 Clear CLR 30 29     96%              
Jan 17 01:48 W 3 10 Clear CLR 30 29     96% 27            
Jan 17 00:48 Calm 10 Clear CLR 29 28     96%              
Jan 16 23:48 Calm 9 Clear CLR 30 27     88%              
Jan 16 22:48 Calm 10 Clear CLR 35 32     88%              
Jan 16 21:48 Calm 10 Clear CLR 34 31     88%              
Jan 16 20:48 Calm 10 Clear CLR 37 32     82%              
Jan 16 19:48 3 10 Clear CLR 41 33     73% 39            
Jan 16 18:48 3 10 Clear CLR 44 34     67% 43            
Jan 16 17:48 W 6 10 Clear CLR 46 34     63% 43            
Jan 16 16:48 W 7 10 Clear CLR 48 34     58% 45            
Jan 16 15:48 NW 9 10 Clear CLR 48 34     58% 44            
Jan 16 14:48 W 8 10 Clear CLR 46 34     63% 42            
Jan 16 13:48 WNW 9 10 Clear CLR 44 33     65% 39            
Jan 16 12:48 W 9 10 Clear CLR 41 32     70% 35            
Jan 16 11:48 WNW 8 7 Partly Cloudy SCT010 37 31     78% 31            
Jan 16 11:26 W 8 7 Mostly Cloudy BKN010 37 30     75% 31   30.32        
Jan 16 10:48 NW 6 5 Fog/Mist BKN007 35 31     85% 30            
Jan 16 09:48 W 8 3 Fog/Mist OVC004 32 30     92% 25            
Jan 16 08:48 WNW 10 2 Fog/Mist OVC004 30 29     96% 21            
Jan 16 07:48 NW 8 2 Fog/Mist OVC004 30 28     92% 22            
Jan 16 07:40 NW 8 2 Fog/Mist OVC004 30 28     93% 23   30.29        
Jan 16 06:48 NNW 8 4 Fog/Mist BKN007 30 28     92% 22            
Jan 16 05:48 W 5 8 Cloudy OVC007 28 27     96% 23            
Jan 16 05:09 WSW 6 8 Mostly Cloudy BKN007 28 27     93% 22   30.25        
Jan 16 04:48 5 8 Mostly Clear FEW007 28 27     96% 23            
Jan 16 04:14 W 7 9 Mostly Clear FEW007 28 27     93% 21   30.26        
Jan 16 03:48 WNW 7 10 Clear CLR 29 28     96% 22            
Jan 16 02:48 W 6 10 Clear CLR 30 28     92% 24            
Jan 16 01:48 5 10 Clear CLR 30 28     92% 25            
Jan 16 00:48 W 5 10 Clear CLR 31 28     89% 26            
Jan 15 23:48 W 6 10 Clear CLR 31 28     89% 25            
Jan 15 22:48 WNW 3 10 Clear CLR 32 28     85% 29            
Jan 15 21:48 WNW 7 10 Clear CLR 32 28     85% 26            
Jan 15 20:48 Calm 10 Clear CLR 33 28     82%              
Jan 15 19:48 W 6 10 Clear CLR 34 29     82% 29            
Jan 15 18:48 W 7 10 Clear CLR 34 29     82% 28            
Jan 15 17:48 WNW 9 10 Clear CLR 36 29     75% 29            
Jan 15 16:53 WNW 8 10 Clear CLR 37 28     70% 31   30.25        
Jan 15 16:48 WNW 8 10 Mostly Cloudy BKN020 38 29     70% 32            
Jan 15 15:48 NNW 10 10 Mostly Cloudy BKN020 39 30     70% 32            
Jan 15 14:48 WNW 14 10 Mostly Cloudy BKN024 40 30     67% 32            
Jan 15 13:48 W 11 10 Mostly Cloudy BKN024 42 30     62% 36            
Jan 15 12:55 WNW 10 10 Partly Cloudy SCT022 41 30     65% 35   30.26        
Jan 15 12:48 WNW 9 10 Partly Cloudy SCT022 41 29     62% 35            
Jan 15 11:48 WNW 8 10 Cloudy OVC020 38 29     70% 32            
Jan 15 10:48 NW 9 10 Clear   37 29     72% 30            
Jan 15 09:48 WNW 10 10 Cloudy OVC018 36 28     73% 29            
May 15 02:48 SE 6 10 Clear CLR 74 62     66%   74          
May 14 17:48 WNW 6 10 Cloudy BKN060 OVC080 88 63     43%   89          
May 14 05:48 Calm 10 Clear   65 62     90%              
May 14 01:48 Calm 10 Clear CLR 69 62     78%              
May 13 23:48 Calm 10 Clear CLR 72 64     76%   72          
May 13 10:48 Calm 10 Clear CLR 82 60     47%   82          
May 12 03:48 Calm 10 Clear CLR 66 63     90%              
May 11 23:48 Calm 10 Clear CLR 71 65     81%   72          
May 11 21:48 Calm 10 Clear CLR 75 65     71%   76          
May 11 19:48 3 10 Clear CLR 84 61     46%   84          
Jun 11 22:47 E 5 10 Partly Cloudy SCT070 79 68     70%   80 30.15        
Jun 11 15:47 E 7 10 Partly Cloudy SCT050 SCT090 88 68     52%   91 30.12        
Jun 10 19:50 Calm 10 Partly Cloudy SCT070 81 61     51%   81 30.05        
Jun 07 21:47 W 6 10 Clear CLR 72 54     53%   71 29.82        
Jun 07 11:47 NE 7 10 Clear   73 59     61%   73 29.83